GFSMA_sfc_temp_105.txt.gz
Temp
71 72 72 72 72 71 72 72 72 72 72 73 74 74 75 76 77 74 74 82 80 80 81 82 81 81 81 80 80 80 80 80 80 79 80 80 79 79 79 79 79 79 79
71 72 72 72 71 70 70 71 71 71 71 72 73 74 75 76 77 76 77 79 81 80 80 81 82 81 81 81 80 80 80 80 80 79 79 79 79 79 79 79 79 79 78
71 72 72 72 72 70 70 69 70 70 70 71 71 73 75 76 77 76 76 78 78 81 81 81 81 81 81 81 81 80 80 79 79 79 79 78 78 78 78 78 79 78 79
72 71 71 72 72 71 70 68 68 69 69 69 69 71 73 74 76 76 76 76 76 78 80 81 81 80 81 81 81 81 80 79 79 79 79 79 78 78 77 78 78 78 78
74 72 71 71 71 71 71 70 69 69 68 68 70 71 72 72 74 78 75 75 74 76 76 79 80 80 81 82 82 81 80 79 79 78 79 79 78 78 77 77 77 78 78
74 72 72 71 71 70 70 70 70 70 69 69 74 74 71 71 72 71 74 77 74 75 76 75 75 79 81 81 81 82 82 81 80 79 78 79 78 78 77 77 77 77 77
74 73 73 71 71 71 71 71 70 69 68 68 68 68 68 70 72 72 72 73 74 75 74 75 75 75 78 80 80 81 81 82 81 80 80 79 78 78 78 77 77 77 77
73 74 73 71 71 71 70 70 70 68 69 69 66 65 64 67 69 72 72 73 73 73 75 76 76 75 76 76 77 79 80 81 82 81 80 79 78 78 78 77 77 77 77
73 74 73 73 72 71 70 70 69 69 66 68 69 66 61 61 64 70 70 71 73 71 73 73 75 75 74 74 76 78 79 79 81 81 81 79 78 77 77 77 76 76 75
75 74 73 72 71 73 70 71 72 70 69 67 66 68 67 67 63 62 67 68 69 70 70 70 72 73 74 74 76 78 77 76 78 81 81 81 79 78 76 76 76 76 75
74 75 73 72 71 71 71 70 70 70 69 67 67 66 67 66 65 64 63 66 68 69 69 70 70 70 72 72 73 75 77 76 76 77 79 80 79 78 77 77 77 77 76
73 74 74 72 72 72 71 71 71 70 70 69 67 67 66 65 65 64 64 65 66 68 68 69 70 70 70 70 75 76 76 76 75 73 74 76 77 77 77 77 77 77 78
70 72 72 72 72 71 72 70 70 70 70 70 69 68 67 67 67 66 65 63 63 66 68 67 69 69 71 71 72 76 77 76 72 70 71 72 74 74 75 75 76 76 77
74 74 73 74 73 72 71 71 71 70 69 68 68 67 68 68 68 68 66 64 64 64 65 67 67 69 70 70 72 76 74 72 71 70 69 70 70 71 72 72 72 73 74
75 74 74 74 73 72 72 71 70 70 69 68 68 69 68 69 69 68 68 67 66 63 62 64 65 68 68 69 70 70 71 72 72 70 69 68 68 69 69 69 70 70 69
76 74 73 73 72 72 72 71 70 70 69 68 69 68 68 68 68 68 69 67 66 66 64 64 65 67 68 69 71 70 70 70 71 70 68 68 68 68 68 68 68 68 68
74 73 72 72 72 71 71 71 70 70 69 68 68 68 67 68 67 67 66 66 65 65 65 64 65 68 68 68 70 69 69 68 69 69 68 68 67 67 67 67 67 67 68
71 72 72 71 72 72 71 71 70 71 69 68 68 67 68 68 67 67 66 65 64 64 63 61 63 66 67 68 68 67 67 67 66 69 67 67 66 65 64 64 64 63 63
68 68 69 70 70 71 71 72 72 70 69 69 68 68 68 67 66 66 66 65 65 65 64 63 62 65 65 65 66 67 67 66 66 68 68 66 65 65 64 63 62 61 59
68 68 68 68 69 70 71 70 71 70 69 70 69 68 68 67 67 67 66 66 66 67 66 65 65 64 64 66 66 65 64 65 65 66 68 66 66 66 66 64 62 62 59
68 68 68 68 69 70 72 70 71 71 69 68 68 68 68 69 69 68 68 66 66 65 65 65 64 62 64 64 64 64 64 64 64 65 64 64 64 63 63 64 65 65 60
65 66 66 68 68 71 66 65 69 70 69 69 68 68 69 69 69 66 67 67 67 65 64 63 62 62 62 65 65 63 63 62 61 63 63 63 63 62 62 63 65 63 60
66 66 66 67 68 69 64 62 65 69 69 68 68 68 69 73 68 68 65 65 65 66 68 66 63 63 63 63 63 62 63 62 62 60 64 62 62 63 61 64 63 61 58
65 67 68 67 67 69 61 61 62 66 67 67 68 68 68 70 68 68 67 66 65 65 65 66 67 67 66 65 65 64 64 63 62 62 64 60 61 62 61 63 63 61 58
65 66 68 68 68 69 58 58 61 65 65 67 67 67 68 67 65 62 67 66 65 64 63 62 63 62 62 61 64 63 61 61 61 59 63 62 61 62 63 63 63 60 57
66 67 66 67 65 68 58 57 61 67 66 65 65 67 62 66 60 58 65 65 65 65 64 64 62 60 60 61 61 66 63 63 60 59 61 62 60 61 60 63 63 61 59

GFSMA_sfc_temp_108.txt.gz
Temp
73 73 73 74 74 74 75 75 75 75 75 75 77 76 78 78 79 79 78 81 80 80 81 82 82 81 81 80 80 80 80 80 80 79 80 80 79 79 79 79 80 79 79
72 73 73 73 73 73 73 74 74 74 74 75 75 76 77 78 79 78 79 81 81 80 81 82 82 81 82 81 80 80 81 81 80 79 79 79 79 79 79 79 79 79 79
73 73 73 73 74 73 72 72 73 73 73 74 74 75 76 77 79 79 79 80 82 81 81 81 81 81 81 81 81 80 80 80 80 79 79 78 78 78 78 78 79 79 78
73 73 73 73 74 73 72 71 71 72 72 73 73 74 75 76 77 78 79 79 80 82 81 81 81 81 81 81 81 81 80 79 79 79 79 79 78 78 78 78 78 78 78
74 73 73 74 73 73 72 71 70 71 71 71 73 74 75 75 76 80 78 78 78 80 80 80 80 80 81 82 82 81 81 79 79 78 79 79 79 78 77 77 78 78 77
74 73 73 72 73 72 72 72 71 71 72 72 75 76 75 76 76 76 78 80 78 79 79 79 79 82 80 82 82 82 82 81 80 79 79 79 79 78 77 77 77 77 77
74 73 74 72 72 72 72 72 72 72 71 72 71 71 72 74 75 76 77 77 77 78 78 79 78 79 81 79 80 80 81 82 81 80 80 79 79 78 78 77 77 77 77
74 74 73 72 72 72 72 72 72 71 70 69 68 68 68 72 74 76 76 77 77 77 79 79 78 78 79 80 80 79 80 81 82 81 80 79 78 78 78 78 77 77 77
74 74 73 73 72 72 71 72 72 72 70 69 70 68 64 66 68 74 74 75 77 76 77 77 78 78 77 79 79 79 79 79 81 82 81 80 78 77 77 77 77 77 76
74 74 73 73 72 73 72 73 72 72 70 68 70 71 71 71 67 67 72 72 73 73 74 76 76 77 78 78 78 78 77 76 78 80 81 81 80 78 78 78 78 77 76
74 74 74 73 72 72 72 72 71 70 71 70 69 69 70 69 69 68 67 71 73 73 74 72 75 75 76 77 78 77 76 76 76 77 78 80 81 80 79 78 77 77 76
74 74 74 73 73 72 72 72 72 72 71 72 70 69 70 68 69 67 66 68 68 72 73 73 74 74 75 75 77 76 76 76 75 74 75 76 77 79 78 78 78 78 78
73 73 74 73 73 73 73 72 71 72 72 72 71 70 70 70 70 69 68 68 67 70 72 73 74 73 75 75 75 76 77 75 73 72 71 72 75 75 76 76 76 76 77
74 75 74 74 74 73 73 73 72 72 72 71 72 70 70 71 70 70 70 67 65 67 68 72 71 71 74 74 75 75 77 73 71 70 70 70 71 72 73 73 73 73 73
76 74 74 74 74 73 73 73 72 72 71 71 71 71 71 72 71 71 70 70 69 66 67 68 67 71 73 73 74 75 76 72 72 70 69 69 69 69 70 70 70 70 69
75 75 74 74 74 73 73 72 72 72 71 71 70 70 71 71 70 70 71 70 70 68 65 69 70 71 73 73 74 75 75 71 70 70 69 68 68 68 68 68 68 68 68
74 74 74 73 73 73 73 72 72 72 71 71 71 71 71 71 71 71 70 70 68 68 66 68 68 72 72 71 72 74 73 73 74 69 68 68 67 67 67 67 66 66 66
71 73 73 73 73 73 73 72 72 73 71 70 71 71 71 71 70 71 70 68 69 68 67 66 68 69 70 69 71 70 70 71 70 70 68 67 66 65 64 64 62 62 62
69 71 72 72 72 72 72 72 72 72 72 72 72 71 71 71 70 70 69 69 69 69 68 66 66 68 69 69 68 68 68 68 68 69 68 67 66 65 64 62 61 60 59
68 68 70 71 71 71 71 72 72 72 72 72 72 72 72 71 71 70 70 69 69 68 67 66 66 66 68 70 68 67 67 68 68 71 70 68 67 67 66 64 62 62 59
69 69 69 70 71 71 71 71 71 71 71 72 71 72 72 72 70 71 72 70 69 67 66 66 66 65 65 66 66 67 67 67 68 68 69 69 69 68 69 66 66 64 61
67 67 67 68 68 70 65 64 68 70 70 71 70 70 73 70 69 66 67 67 70 68 66 66 66 65 66 68 69 68 67 64 63 69 67 68 69 68 68 67 66 64 61
66 66 66 66 68 69 63 63 64 69 69 70 70 70 70 75 70 72 66 65 65 65 68 70 68 68 68 68 70 66 65 65 65 67 67 64 67 65 69 66 63 62 60
66 66 67 67 66 68 63 60 61 67 68 70 70 70 70 72 72 71 72 70 70 71 69 70 72 72 72 71 71 70 69 69 67 67 67 63 65 63 68 68 63 61 59
65 66 68 67 67 68 59 57 62 66 66 66 68 68 70 70 65 61 71 70 70 71 65 62 64 64 62 62 67 69 65 64 63 64 66 68 67 66 66 66 69 61 58
67 67 67 69 65 69 55 55 63 67 65 65 66 67 62 66 60 58 67 69 68 71 69 69 67 63 62 65 61 71 70 66 66 64 66 65 64 68 63 67 70 68 64

GFSMA_sfc_temp_111.txt.gz
Temp
83 83 83 84 85 85 84 81 84 84 83 85 86 86 88 88 89 90 90 83 80 80 82 82 82 81 81 81 80 80 81 80 80 80 80 80 80 80 80 80 80 80 80
83 84 83 84 84 85 86 83 84 83 83 85 84 85 86 87 88 87 92 91 81 80 81 82 82 82 82 81 81 80 80 81 80 80 80 79 79 79 79 80 80 80 79
82 83 84 84 85 84 82 81 82 82 83 83 83 85 86 86 88 87 90 90 90 80 80 81 81 81 81 82 81 81 80 80 80 80 79 79 78 78 78 79 79 79 79
82 82 83 84 85 83 83 83 82 82 83 84 83 85 86 86 86 87 89 89 91 92 84 81 81 80 81 81 82 81 80 79 79 79 79 79 78 78 78 78 78 78 78
82 83 84 85 82 84 83 83 82 81 82 82 84 85 85 86 87 90 88 88 88 89 92 85 80 80 81 83 82 81 80 80 79 79 79 79 79 78 78 77 78 78 78
82 82 83 83 82 81 82 81 80 81 81 82 84 85 85 87 88 88 88 90 90 89 89 88 89 89 81 81 82 82 82 81 80 79 79 79 78 78 78 77 77 77 78
82 81 83 81 81 82 82 80 81 79 81 82 80 82 83 85 86 88 89 90 89 89 88 88 88 90 91 80 80 80 81 82 81 81 80 79 79 79 78 78 77 77 77
82 82 82 82 81 82 80 80 79 81 82 82 80 81 78 83 86 88 89 88 88 90 90 87 87 86 88 90 88 80 80 81 82 81 80 79 79 78 78 78 77 77 77
81 81 81 82 81 82 83 80 80 79 77 77 78 75 71 73 82 87 85 87 87 89 89 89 87 87 86 88 86 85 80 78 80 81 81 80 78 77 77 77 77 77 76
81 81 81 81 80 82 81 81 82 81 77 78 76 78 77 79 73 78 84 85 84 83 84 87 88 87 87 87 86 82 79 76 78 79 81 81 79 78 78 77 78 78 77
81 82 81 81 80 81 81 80 80 79 82 80 75 77 76 75 78 75 77 82 86 87 87 87 88 88 87 87 89 85 78 76 76 77 78 78 80 79 80 79 79 79 78
82 81 82 81 80 81 80 80 80 79 77 79 79 77 78 79 77 76 76 78 79 83 86 88 88 88 86 88 86 79 77 76 75 74 75 76 77 79 80 80 79 79 79
82 82 81 80 82 79 78 78 78 80 80 77 78 82 82 77 78 77 78 80 78 81 79 87 87 87 87 88 88 79 79 75 74 73 72 73 74 76 78 78 78 78 78
84 83 81 82 81 81 80 79 81 78 79 78 79 80 83 81 80 78 79 76 74 80 81 78 82 85 86 85 82 77 83 75 73 72 71 70 72 73 73 74 74 74 74
85 83 82 82 82 81 81 80 77 81 78 78 79 79 78 79 83 77 79 77 73 72 75 83 80 79 80 77 82 83 83 75 72 70 68 69 69 70 71 71 71 70 70
82 83 81 82 82 82 81 79 79 81 79 78 76 76 77 78 79 79 82 81 79 75 72 83 82 81 82 83 83 81 82 73 71 70 68 68 68 69 69 69 69 69 69
80 79 81 81 81 81 81 80 79 80 78 78 79 77 77 78 76 80 81 77 74 74 69 76 79 81 79 80 80 80 79 82 83 69 69 68 68 68 68 68 68 67 66
80 80 79 80 81 81 81 80 79 81 79 78 79 77 77 80 78 78 77 73 74 73 70 70 75 78 77 79 76 74 76 77 77 70 69 68 67 66 66 66 64 63 62
78 78 78 78 79 80 80 80 79 80 80 79 80 78 78 79 77 78 77 76 74 73 72 72 76 77 79 80 77 70 70 70 73 71 68 67 67 66 65 64 62 60 60
75 76 77 76 77 78 81 80 79 80 79 80 79 79 79 79 78 78 78 78 77 73 72 71 70 69 74 78 77 73 69 72 73 76 74 71 70 67 66 64 63 62 60
69 72 72 74 74 75 75 76 78 78 77 76 77 79 80 78 74 76 81 79 77 72 71 69 68 69 71 71 70 73 73 75 73 75 77 80 80 79 78 67 70 65 62
71 71 71 73 72 73 65 64 71 78 78 76 76 75 80 73 73 67 68 70 76 75 71 71 69 68 70 74 78 73 73 68 68 80 77 78 81 80 81 81 69 65 62
70 69 70 70 72 73 63 62 64 73 71 70 71 71 74 80 73 80 67 65 67 67 71 76 74 76 76 78 77 75 73 74 75 78 75 71 78 77 81 80 64 62 61
67 67 69 70 67 67 61 60 62 70 71 70 70 71 72 75 77 78 80 78 78 78 76 79 79 79 79 79 78 78 77 75 74 74 73 68 78 74 80 81 63 62 60
66 66 67 70 69 68 59 58 62 71 68 68 69 69 70 72 66 60 75 76 78 80 71 64 66 65 64 64 71 80 77 72 66 69 73 69 76 75 76 79 78 61 59
69 71 71 70 66 69 60 57 60 69 67 67 67 69 62 69 60 58 69 72 75 79 79 79 74 69 65 71 62 76 80 76 76 72 75 71 75 75 74 80 80 77 71

GFSMA_sfc_temp_114.txt.gz
Temp
84 84 83 89 90 85 83 86 91 88 89 90 91 91 93 94 95 97 98 82 81 80 82 82 82 82 82 81 81 81 81 81 80 80 80 80 80 80 80 80 80 80 80
85 84 81 85 89 91 85 85 88 88 89 91 90 91 91 93 94 94 96 96 81 80 81 82 82 82 82 82 81 81 81 81 81 80 80 80 79 79 80 80 80 80 79
87 88 87 89 88 89 88 88 84 89 89 90 89 91 92 92 94 93 94 97 92 80 80 81 81 82 82 82 82 81 80 80 80 80 79 79 79 78 79 79 79 79 79
88 87 91 90 92 89 89 88 88 89 89 89 88 89 91 92 92 92 94 95 97 99 83 81 80 81 82 82 82 81 80 80 79 79 79 79 79 78 78 78 78 79 79
89 89 91 91 89 91 90 90 89 88 87 88 89 90 91 92 93 95 93 94 94 95 98 83 80 80 82 83 82 82 81 80 79 79 79 79 79 78 78 78 78 78 77
87 87 91 89 88 90 90 90 87 88 88 89 91 91 91 93 94 94 93 96 96 95 95 93 93 91 80 82 82 82 82 81 80 79 79 79 79 78 78 78 78 77 77
88 86 90 85 82 88 88 86 86 84 86 88 87 87 89 91 91 93 95 96 95 96 94 95 94 95 95 80 80 80 81 82 81 80 80 79 79 78 78 78 77 77 77
87 87 86 88 84 82 82 81 84 87 87 88 84 86 83 88 92 93 94 95 94 96 96 95 93 91 92 95 92 80 80 81 81 81 80 79 79 78 78 78 77 77 77
87 85 86 86 87 86 81 83 81 83 87 88 86 86 82 81 88 92 91 93 92 95 96 95 93 92 90 93 90 89 81 79 80 80 81 80 79 78 77 77 77 77 77
86 86 85 85 84 83 82 85 87 82 80 78 82 85 83 81 69 73 86 90 91 88 89 92 94 93 91 93 89 86 80 77 78 79 80 81 80 78 78 78 78 77 77
86 88 86 85 85 84 83 84 83 81 80 79 78 79 79 83 79 76 79 83 89 94 95 94 94 95 94 93 94 89 80 78 77 77 78 79 79 79 79 79 79 79 79
88 86 87 86 86 86 84 83 84 83 84 83 80 78 81 78 76 76 75 80 86 91 94 93 93 94 95 95 91 83 80 77 75 75 75 76 77 78 79 80 81 80 80
89 87 86 86 86 84 86 85 84 83 83 84 82 85 89 81 80 78 79 84 85 91 91 93 91 90 90 94 94 83 81 77 74 73 73 73 75 76 77 78 80 80 79
91 89 87 87 86 86 85 84 81 86 86 84 83 84 86 86 82 86 84 85 83 86 89 87 90 87 92 93 89 78 87 77 74 72 71 71 71 73 75 75 77 76 75
93 90 88 84 86 87 86 84 84 84 85 84 84 84 80 84 81 82 81 80 82 76 82 87 82 87 90 91 87 86 85 77 75 72 70 69 70 71 73 74 73 73 72
85 89 88 87 86 87 86 84 84 84 85 86 86 84 82 83 85 80 83 79 81 77 78 85 87 85 87 86 86 86 86 76 74 72 70 69 70 71 71 72 72 72 71
79 80 86 86 86 86 86 84 84 85 85 84 85 82 82 83 82 80 79 80 78 77 73 85 90 87 82 80 85 87 87 86 81 71 70 69 69 69 70 71 71 71 69
77 79 79 80 84 86 86 85 84 87 85 84 84 83 84 86 81 80 79 79 77 80 81 78 83 86 82 84 83 82 84 86 82 73 69 69 67 67 67 68 70 66 64
81 82 84 82 82 82 85 84 85 86 86 86 85 84 84 82 81 81 81 78 80 80 80 79 82 87 86 87 83 81 79 77 73 71 68 67 67 66 66 66 65 62 61
79 80 82 79 80 83 81 84 85 85 85 85 86 85 86 85 82 82 81 79 80 82 81 79 83 81 78 84 83 83 79 81 82 78 77 72 72 68 67 66 64 63 60
80 80 80 79 80 81 82 82 83 84 84 84 85 85 86 82 76 80 85 82 82 80 77 75 80 77 73 76 78 84 81 79 79 83 82 83 83 82 79 68 72 66 62
78 79 77 79 79 82 70 66 72 80 80 80 81 84 85 74 73 69 69 70 78 79 75 79 80 79 77 79 81 82 81 78 74 85 80 83 82 82 80 82 75 71 62
76 75 76 78 78 79 63 62 64 79 80 82 81 83 84 86 74 82 67 66 68 67 70 78 78 80 80 81 81 79 79 79 80 79 81 80 85 81 85 78 66 64 61
75 73 73 75 75 77 62 59 61 71 76 78 77 80 80 78 78 73 73 72 77 79 78 83 81 81 82 83 81 81 78 76 80 85 82 77 86 84 86 86 65 63 61
71 68 70 71 70 76 59 58 60 68 72 75 77 77 75 69 64 60 68 70 71 77 71 65 67 65 62 62 71 80 77 73 76 79 79 79 83 84 85 86 85 62 60
74 74 74 70 68 73 59 56 59 69 70 71 75 70 64 67 60 59 66 68 68 73 80 82 80 73 69 75 62 77 80 75 78 77 83 74 80 83 79 86 86 79 75

GFSMA_sfc_temp_117.txt.gz
Temp
83 83 83 87 88 86 84 83 87 90 89 91 91 90 91 96 94 98 90 82 81 81 82 83 83 82 82 81 81 81 81 81 81 80 80 81 80 80 80 80 80 80 80
83 86 84 89 91 86 84 83 86 89 87 91 89 93 93 96 96 87 89 81 81 81 81 82 83 83 82 82 81 81 81 81 81 81 80 80 80 80 80 80 80 80 80
83 85 85 86 89 90 84 82 84 86 84 91 90 91 92 94 96 90 93 92 88 81 81 81 82 82 82 82 82 81 81 80 80 80 80 79 79 79 79 79 80 80 79
83 84 80 86 91 88 89 89 88 88 86 89 89 91 91 93 93 93 94 95 85 89 80 81 81 81 81 82 82 82 81 80 79 79 79 79 79 78 78 78 79 79 78
85 90 92 85 91 91 90 90 90 88 88 89 90 90 91 92 93 97 93 94 91 96 86 81 80 81 82 83 83 82 81 80 79 79 79 79 79 79 78 78 78 78 78
86 87 92 89 90 91 92 91 88 91 90 90 91 92 90 92 93 94 95 97 95 95 92 90 84 88 81 82 82 82 82 81 80 80 79 79 79 78 78 78 78 78 78
89 87 91 85 88 88 89 89 89 86 87 89 88 89 91 92 92 94 96 96 93 92 94 96 95 96 94 81 80 81 82 82 81 81 80 79 79 78 78 78 78 77 77
89 89 87 88 86 81 81 86 84 87 87 89 85 86 83 87 92 93 93 94 95 97 96 95 94 93 93 94 89 80 80 81 82 81 81 80 79 78 78 78 77 77 77
89 88 88 88 84 82 82 80 76 74 86 88 86 86 82 82 87 85 87 92 92 95 95 86 92 93 92 93 90 88 81 79 81 82 81 80 79 78 78 78 77 77 77
89 88 87 87 85 87 82 83 81 78 79 80 86 88 86 86 82 82 89 83 76 91 91 93 94 94 94 93 90 87 82 78 79 80 81 81 80 78 78 78 78 78 77
88 89 87 86 85 87 86 84 83 81 83 78 77 78 81 83 82 80 74 80 85 91 87 87 91 94 88 93 95 90 81 79 78 78 79 79 79 79 79 79 79 79 78
89 87 89 86 86 86 85 86 84 82 82 82 82 81 80 78 78 80 79 82 82 88 92 84 91 87 91 95 93 86 82 79 77 76 76 76 77 78 79 80 80 80 80
91 87 85 86 87 86 86 85 82 81 83 82 81 83 80 80 83 81 75 78 82 88 89 93 78 81 93 92 89 82 83 78 76 74 73 74 74 75 76 78 79 80 81
93 90 86 87 87 87 86 85 85 85 83 83 82 83 87 86 84 84 83 83 81 86 87 82 93 85 93 85 86 81 90 78 76 73 72 71 72 73 74 75 76 79 79
86 87 90 87 87 87 86 85 85 83 83 83 82 82 84 89 90 86 87 87 83 75 81 87 79 91 90 87 89 89 88 82 78 73 71 71 70 71 72 75 76 76 74
79 78 77 88 86 86 85 84 85 84 82 85 86 81 81 80 83 85 85 85 82 79 75 87 89 88 86 85 89 88 86 79 75 74 72 70 70 71 72 73 73 73 73
80 73 78 80 85 85 85 83 84 86 83 82 84 83 82 82 84 84 85 84 81 76 75 83 88 83 80 85 87 86 84 80 82 73 71 70 70 70 70 70 71 71 72
81 76 73 74 73 80 84 83 84 86 84 82 83 83 84 86 81 81 81 80 81 78 76 76 83 86 85 86 85 83 80 83 86 74 71 69 68 68 67 68 70 71 68
81 79 77 70 74 77 82 84 83 84 85 85 83 83 84 83 80 80 79 79 80 79 80 80 80 87 87 87 82 83 82 83 84 73 69 68 67 67 67 67 68 65 62
82 81 79 77 74 76 82 83 83 83 83 85 86 86 87 84 82 81 80 79 79 81 81 80 82 84 87 87 83 78 79 82 83 85 78 76 72 68 67 67 66 64 61
82 82 81 82 78 77 80 82 82 82 82 84 85 87 87 84 78 80 83 79 78 78 82 82 82 84 84 78 80 83 79 84 80 84 80 80 81 80 79 67 73 66 62
81 82 82 82 81 83 71 67 74 79 80 81 81 84 85 78 77 70 69 70 75 76 76 80 79 78 80 80 82 81 80 76 77 88 82 82 82 78 79 84 75 69 63
80 79 80 80 79 81 65 64 67 81 81 80 80 80 81 87 78 84 70 68 68 68 70 77 77 77 77 81 79 77 78 78 78 84 80 80 84 81 84 84 68 67 63
77 76 79 80 79 81 62 61 63 77 78 79 79 80 79 79 81 79 81 81 81 82 79 76 74 76 79 79 80 80 79 79 80 83 83 78 85 85 83 83 66 65 62
75 77 78 77 77 78 59 58 65 78 78 76 77 77 77 75 63 61 78 78 75 74 69 64 63 64 63 62 68 78 75 74 76 80 83 82 83 83 86 86 83 63 61
74 74 75 76 69 75 59 56 64 79 76 75 73 72 63 67 60 59 72 70 72 69 70 72 71 66 65 69 62 75 78 73 74 75 83 78 81 82 80 88 88 74 74

GFSMA_sfc_temp_123.txt.gz
Temp
73 73 75 75 75 74 74 73 75 76 75 79 81 81 81 83 83 78 77 82 81 81 82 82 81 81 81 81 80 80 80 80 80 80 80 80 80 80 80 80 80 80 79
76 75 75 75 76 75 76 74 74 75 75 78 80 81 80 81 83 81 79 80 81 81 81 82 82 81 81 81 80 80 81 81 80 79 79 79 79 79 79 79 80 79 79
76 77 76 75 74 75 76 75 75 75 75 78 78 81 80 82 83 82 80 79 79 81 81 81 81 81 81 81 81 80 80 80 80 79 79 79 78 78 78 79 79 79 79
77 76 77 75 76 75 78 75 74 74 75 75 76 76 78 79 81 83 81 79 80 81 81 81 81 81 81 81 82 81 80 79 79 79 79 79 78 78 78 78 78 79 78
78 78 79 77 75 77 75 76 72 74 74 74 76 75 75 76 78 85 82 81 81 80 78 80 80 80 81 82 82 81 81 80 79 79 79 79 79 78 78 78 78 78 78
79 79 77 75 75 75 75 73 73 74 74 76 81 80 75 76 77 77 79 86 79 82 80 79 79 80 81 82 82 81 81 80 79 79 79 79 79 78 78 77 77 77 77
79 78 78 75 76 78 77 77 77 73 75 75 75 71 73 76 78 79 78 78 80 82 81 79 78 79 80 80 80 81 81 82 81 80 79 78 78 78 78 77 77 77 77
79 79 78 76 76 78 77 74 76 75 75 74 70 68 66 70 77 80 79 81 78 80 84 81 81 81 79 79 79 80 80 81 81 81 80 79 78 77 77 77 77 76 76
79 79 78 76 75 75 76 73 74 72 71 72 73 70 63 63 67 73 78 79 78 76 78 79 81 81 80 78 79 80 80 79 80 81 81 80 78 77 77 77 77 76 76
79 78 78 77 75 77 77 75 75 73 71 69 70 75 72 69 64 65 71 72 72 74 75 75 79 79 80 80 81 81 79 77 78 80 81 81 80 78 77 77 77 77 76
80 80 78 78 77 76 76 73 72 72 74 70 70 70 68 69 70 66 65 69 71 73 73 74 75 77 76 77 75 77 79 77 77 78 79 80 80 79 78 78 78 78 77
80 80 80 78 79 78 74 75 74 73 74 72 73 70 72 69 69 67 66 67 68 72 73 75 75 71 72 74 79 79 79 77 76 77 76 77 79 80 80 80 79 79 79
82 81 79 78 78 78 78 75 75 75 74 74 72 75 75 74 71 69 67 66 68 68 72 74 75 74 77 72 74 79 79 76 76 75 74 74 75 75 76 77 77 78 78
74 81 80 81 80 77 77 77 75 76 75 74 73 73 73 76 72 70 69 67 65 66 69 73 74 75 77 71 74 77 76 77 75 73 72 72 72 73 73 74 74 74 75
80 75 78 79 80 79 78 77 77 76 76 75 74 74 73 75 72 72 71 70 72 65 64 70 72 75 75 73 76 77 76 77 75 74 72 71 70 70 70 70 70 70 71
77 79 76 78 77 79 78 76 75 75 75 76 76 74 74 73 73 72 72 71 70 69 67 70 71 74 76 78 77 77 77 76 75 74 72 70 69 69 69 69 70 70 70
74 74 78 77 76 75 75 74 74 74 73 73 74 74 74 75 75 73 73 73 71 69 69 71 72 73 73 73 76 75 76 75 73 72 72 70 69 69 68 69 70 70 71
74 74 75 75 70 69 67 66 67 70 73 72 73 74 74 76 74 73 71 72 75 74 73 70 69 70 71 73 73 73 74 76 73 74 71 69 68 68 67 67 67 67 68
73 73 72 72 69 68 67 67 67 68 69 72 72 74 74 73 74 75 73 74 73 74 72 70 70 70 71 71 71 72 72 72 74 74 69 68 68 67 66 65 65 65 64
70 72 70 70 70 67 66 64 65 66 69 72 74 73 74 74 75 75 74 74 72 71 70 70 69 70 70 72 71 69 69 71 71 74 73 71 68 67 67 66 65 65 61
71 72 71 70 70 67 67 67 68 66 67 70 70 68 69 74 73 74 76 75 73 72 71 70 69 68 69 68 68 69 69 69 70 71 69 68 68 67 67 66 68 67 63
70 71 71 70 69 70 67 66 68 68 69 68 67 67 66 68 71 69 70 73 74 72 71 71 70 69 69 67 68 68 69 66 65 72 70 68 68 67 69 68 68 66 63
69 69 70 69 70 71 64 64 66 68 68 67 66 66 68 71 68 70 70 68 69 69 72 72 70 69 68 67 68 68 67 65 66 70 70 66 68 68 70 73 67 64 63
66 67 68 68 68 70 65 62 65 68 67 66 67 66 66 67 68 70 72 70 69 68 68 69 71 70 70 69 69 69 68 67 68 71 70 65 67 67 70 70 68 65 63
66 66 67 66 66 67 58 59 62 67 67 68 69 71 70 70 68 65 70 68 68 68 66 63 64 64 65 64 68 68 66 64 64 66 69 66 65 66 68 70 71 65 63
66 67 67 66 63 66 57 58 61 66 66 66 67 68 62 67 61 59 68 69 68 67 68 67 67 65 65 66 62 68 67 65 65 65 69 66 66 66 64 68 68 65 62

GFSMA_sfc_temp_129.txt.gz
Temp
72 72 72 73 73 72 72 73 73 74 73 74 76 76 77 77 76 75 77 82 80 80 81 82 81 81 81 80 80 80 80 80 80 79 80 80 79 79 79 79 79 79 79
72 72 71 72 73 72 72 72 72 73 73 74 75 76 76 77 77 76 75 77 81 80 80 81 81 81 81 81 80 80 80 80 80 79 79 79 79 78 79 79 79 79 79
71 72 72 73 73 72 72 71 71 72 71 73 74 75 75 76 77 77 76 75 78 81 80 81 80 81 81 81 81 80 80 79 79 79 78 78 78 78 78 78 79 79 78
73 71 72 73 75 74 73 72 71 71 71 71 72 72 73 75 76 76 76 78 75 78 79 81 80 80 80 81 81 81 80 79 78 78 78 78 78 78 77 78 78 78 78
76 74 73 75 74 73 73 73 71 71 70 70 72 71 72 72 74 80 76 76 77 76 76 79 80 80 81 82 82 81 80 79 78 78 78 78 78 78 77 77 77 78 78
75 75 75 74 74 74 73 72 71 71 71 71 76 76 72 72 72 72 75 78 75 77 76 76 76 79 79 81 81 81 81 80 79 78 78 78 78 78 77 77 77 77 77
75 74 76 74 72 73 73 71 71 71 71 69 68 68 69 71 71 71 73 75 75 77 77 77 75 77 78 79 79 80 80 81 80 80 79 78 78 78 77 77 77 76 76
75 75 75 74 73 73 71 70 70 68 69 68 66 64 63 67 69 72 71 73 73 75 76 77 76 76 76 76 78 79 80 80 81 80 80 79 78 77 77 77 76 76 76
75 75 75 75 74 73 73 72 71 70 69 67 69 67 60 61 63 68 71 71 73 71 73 75 76 77 76 76 78 78 79 78 80 80 81 80 78 77 77 77 77 76 76
76 75 76 75 75 74 75 74 74 73 70 68 66 71 67 66 62 63 67 68 69 71 71 71 76 76 76 76 78 79 78 76 78 79 80 81 80 78 77 77 78 77 76
76 76 75 75 75 75 75 75 74 72 73 74 67 65 66 65 65 63 63 66 68 69 70 72 73 73 73 75 74 75 77 77 77 77 78 79 79 80 80 79 79 80 80
75 75 76 75 75 76 74 74 73 73 73 73 74 66 70 65 67 63 62 64 66 71 70 70 70 69 70 71 76 78 77 77 75 75 75 76 77 78 78 80 81 81 81
70 75 73 75 76 76 76 75 74 74 73 72 70 71 73 75 67 65 65 67 64 65 68 70 72 71 73 71 73 77 78 76 74 73 73 73 74 75 76 76 78 80 80
71 73 74 74 76 76 77 76 76 75 75 73 72 70 75 74 68 67 68 65 64 63 65 68 71 72 71 71 73 75 74 75 73 71 70 71 71 71 72 73 74 75 75
72 72 72 73 74 74 74 73 73 75 75 75 73 72 71 75 71 69 69 68 67 66 64 67 67 73 73 72 73 72 71 73 73 70 69 70 70 69 70 70 70 70 70
72 72 72 72 72 73 74 73 71 71 71 72 74 71 70 71 70 69 69 69 69 70 68 68 68 69 71 73 74 73 72 72 72 71 70 68 69 69 69 69 69 68 68
71 71 72 71 71 71 71 71 73 72 70 71 72 71 70 70 70 70 70 69 69 68 68 74 69 69 69 70 73 72 73 71 71 71 70 69 68 68 68 67 67 67 68
68 71 71 71 71 69 67 68 69 64 64 64 64 67 69 71 70 70 70 69 69 69 69 69 70 67 68 69 70 71 72 73 71 72 70 69 68 67 66 65 65 65 64
67 69 71 70 68 67 66 67 66 64 65 65 66 65 67 68 69 69 70 69 69 70 69 70 70 67 68 68 68 69 69 70 71 73 70 68 67 67 65 64 63 62 60
66 67 68 69 69 67 67 66 67 65 66 67 67 68 67 66 69 70 70 70 71 69 68 68 69 69 67 67 68 67 67 67 68 71 72 70 69 68 66 65 64 63 60
65 66 67 68 69 67 68 66 66 66 65 66 68 69 70 69 69 70 71 70 71 69 69 68 68 67 66 65 67 67 66 67 67 69 68 69 68 68 68 66 67 66 62
64 64 65 68 67 69 66 64 67 65 66 66 65 67 69 69 67 66 67 68 70 69 70 69 70 69 68 67 67 66 66 64 64 67 67 67 68 67 71 67 68 65 62
63 63 64 68 68 69 63 63 65 66 65 64 63 64 65 70 69 70 65 65 65 66 68 71 69 69 68 69 68 65 65 64 65 66 67 65 68 68 71 70 65 64 62
62 63 65 68 68 69 62 60 63 66 64 64 64 64 65 67 67 67 66 66 67 69 68 69 71 71 71 70 70 68 66 66 65 66 67 65 67 67 70 70 66 63 61
61 64 64 64 65 68 60 59 60 65 64 65 65 65 66 65 64 61 65 64 64 66 64 63 64 65 63 63 66 67 65 64 63 64 67 67 66 67 67 69 70 64 60
62 63 64 64 62 64 56 56 58 65 64 65 66 65 62 64 59 58 63 64 63 65 67 68 66 63 62 65 63 70 67 64 63 63 66 66 65 65 62 64 66 66 64

GFSMA_sfc_temp_132.txt.gz
Temp
74 74 74 74 75 75 75 74 75 76 76 76 77 77 78 79 79 78 78 81 80 80 81 82 82 81 81 81 80 80 80 80 80 79 80 80 80 79 79 79 79 79 79
74 74 73 74 74 74 75 74 74 74 75 76 76 77 77 78 79 78 79 79 81 80 80 81 82 81 81 81 80 80 81 81 80 79 79 79 79 78 79 79 79 79 79
73 74 73 74 74 74 75 74 73 74 73 75 75 77 77 78 79 80 79 78 81 81 81 81 80 81 81 81 81 80 80 79 79 79 79 78 78 78 78 78 79 79 79
74 73 73 74 75 74 74 74 73 73 73 73 73 75 76 76 77 79 79 79 78 82 81 81 80 80 80 81 81 81 80 79 79 78 78 78 78 78 77 78 78 78 78
75 73 74 74 75 74 73 74 74 73 73 73 74 74 75 75 76 81 79 79 79 80 81 79 80 80 81 82 81 81 81 80 79 78 78 78 78 78 77 77 77 77 77
75 75 75 75 75 73 74 74 73 73 74 74 75 77 75 75 76 76 77 81 79 80 80 79 79 81 80 81 81 81 81 80 79 79 79 78 78 78 77 77 77 77 77
75 75 74 74 74 74 75 74 74 73 73 73 72 72 73 75 75 75 77 78 78 79 79 79 79 80 81 79 79 80 81 82 81 80 80 79 78 78 77 77 77 76 77
76 75 75 74 74 74 73 72 73 72 73 71 71 68 67 72 74 75 75 76 77 78 79 79 79 78 79 81 81 79 80 80 81 81 81 79 78 78 77 77 77 77 76
75 74 75 74 75 73 75 73 73 72 70 70 72 71 65 65 69 73 73 75 76 75 77 78 79 79 79 80 80 80 79 78 79 81 81 80 78 77 77 77 77 77 76
75 75 74 74 74 73 72 74 72 74 72 69 69 73 72 71 67 68 73 73 73 73 74 75 78 79 79 80 79 79 77 76 78 79 80 80 79 78 77 77 77 77 77
74 76 75 74 73 74 73 73 73 72 73 74 70 68 70 72 70 67 68 72 74 76 77 76 77 78 78 79 79 79 77 76 76 77 78 79 79 79 79 78 78 79 79
72 74 76 74 74 75 74 74 74 73 72 73 75 70 72 68 69 68 66 70 71 76 76 77 76 75 76 77 79 78 77 76 75 75 75 76 77 78 79 80 80 80 81
71 73 74 74 75 75 74 74 74 74 74 73 72 72 73 75 74 70 69 72 68 70 74 76 78 76 77 77 78 77 79 76 74 72 72 73 74 75 76 77 77 77 80
72 74 73 74 74 75 74 73 72 72 74 74 73 72 74 74 73 72 72 68 69 67 71 75 77 77 75 77 79 76 78 74 73 72 71 71 70 72 72 73 74 74 75
73 73 73 73 74 74 75 74 73 72 72 72 72 72 70 74 71 73 72 73 68 69 71 73 74 77 79 79 78 78 78 74 72 71 70 69 69 70 70 70 71 70 70
69 71 72 73 73 73 74 74 73 73 72 71 71 71 71 71 72 70 71 71 71 69 70 77 74 75 78 80 79 79 78 72 71 70 69 68 68 69 69 70 69 69 69
67 67 69 71 72 73 73 72 72 73 71 71 71 70 69 70 70 70 70 70 70 70 69 74 77 76 74 75 78 79 79 79 79 70 69 68 68 68 68 68 68 68 68
66 67 67 69 71 72 72 72 71 72 72 70 68 64 63 67 67 70 70 70 70 71 70 69 74 73 73 75 77 76 77 80 79 74 69 68 67 67 66 66 65 65 64
65 66 66 67 69 71 71 72 72 72 69 69 67 67 66 66 64 65 70 70 71 71 70 71 73 73 75 74 73 74 75 76 78 74 70 68 67 67 65 64 63 62 60
64 64 65 66 67 69 71 71 70 70 69 70 69 68 67 66 66 67 68 71 71 70 70 69 71 73 71 72 73 73 73 74 75 79 75 72 70 69 67 65 64 63 60
64 65 65 64 66 68 70 70 69 68 68 68 69 69 68 69 69 68 70 71 71 70 69 69 70 70 69 68 70 73 72 74 73 75 76 76 77 77 76 67 70 66 63
65 65 64 64 63 67 66 65 68 68 68 67 67 68 70 69 68 66 68 70 71 71 69 69 69 70 70 70 72 71 71 70 70 74 72 76 77 76 79 78 70 66 62
63 63 63 63 63 65 64 63 65 68 68 67 67 66 67 72 67 68 66 65 65 65 68 71 69 71 71 72 72 69 70 70 71 72 72 72 73 75 78 79 65 63 62
62 61 63 63 64 66 63 60 63 67 67 67 67 66 66 68 67 68 68 67 68 69 68 70 72 73 74 74 73 73 72 72 71 73 73 72 72 75 77 78 66 63 61
60 63 63 64 65 65 60 59 61 65 65 65 65 66 66 66 64 62 69 67 68 67 64 63 64 65 64 63 68 70 69 68 68 70 71 73 72 75 70 72 71 63 60
59 62 63 63 61 64 57 55 58 66 65 65 64 65 62 65 59 58 68 67 63 67 67 68 67 64 63 66 61 71 72 69 69 68 72 70 70 72 71 72 71 75 71

GFSMA_sfc_temp_135.txt.gz
Temp
83 83 83 85 85 86 85 81 81 83 84 85 86 86 87 88 87 89 90 82 81 80 81 82 82 82 81 81 80 81 81 80 80 80 80 80 80 80 80 80 79 79 80
84 84 83 79 85 86 85 84 80 82 84 86 86 86 86 87 88 88 91 92 81 80 80 82 82 82 82 81 81 80 80 81 80 80 79 79 79 79 79 79 80 80 79
83 82 83 79 82 85 78 83 82 81 82 84 83 86 87 87 89 87 90 91 90 80 80 81 81 81 81 82 81 81 80 80 80 79 79 79 78 78 78 79 79 79 78
83 83 84 84 83 79 83 82 84 82 81 81 82 84 86 87 86 87 89 90 90 92 85 80 81 81 81 82 82 81 80 79 79 79 79 78 78 78 78 78 78 78 78
84 83 84 84 83 83 83 78 84 83 81 80 82 84 84 85 86 90 88 88 89 90 92 85 80 80 82 83 81 81 81 80 79 79 79 79 78 78 78 78 78 78 78
83 83 84 84 83 82 83 77 75 84 82 81 82 84 84 86 87 87 87 90 90 89 90 89 89 89 81 81 81 82 82 81 80 79 79 78 78 78 78 77 77 77 77
83 82 84 84 83 81 82 77 80 80 82 82 79 82 83 84 85 87 88 89 89 89 90 90 88 90 91 80 80 80 81 82 81 80 79 79 78 78 78 78 77 77 77
82 82 82 83 83 83 81 81 79 81 82 82 79 80 76 83 86 87 88 88 88 90 90 89 88 87 88 91 88 80 80 81 82 82 81 79 78 78 78 78 77 77 76
81 79 81 80 82 80 80 81 78 79 80 82 79 78 76 75 80 86 84 87 86 88 89 90 88 87 86 89 87 86 80 78 80 81 81 80 78 77 78 77 77 77 76
82 81 80 79 80 85 82 79 81 81 77 77 80 81 81 81 77 77 84 83 82 82 84 87 87 87 87 89 87 84 80 77 78 79 80 80 79 77 77 77 77 77 76
83 82 82 80 79 82 81 80 80 79 80 76 79 77 78 80 79 77 76 82 86 87 88 86 88 89 88 88 90 86 78 77 76 77 78 78 79 79 79 78 78 78 78
84 82 82 81 81 79 80 79 79 80 78 80 77 81 76 80 79 77 76 78 80 84 89 89 88 89 90 90 87 81 79 76 75 75 75 76 77 78 79 79 80 80 80
82 82 81 81 82 81 80 80 78 78 78 78 78 79 84 83 84 84 81 81 80 85 85 89 89 90 90 90 90 80 80 76 74 73 72 73 74 75 76 77 78 78 79
80 79 79 80 80 81 81 81 81 82 79 77 78 78 79 84 85 84 82 80 78 81 83 81 90 89 90 90 88 78 86 76 74 72 71 71 71 72 73 74 75 75 76
78 78 78 78 79 79 79 79 78 78 79 78 78 80 78 77 84 85 84 80 78 76 80 86 85 88 90 91 88 89 88 79 74 72 70 69 69 70 70 71 71 71 71
74 74 74 75 76 78 79 78 76 78 75 76 77 76 77 82 80 82 83 83 82 78 75 85 87 87 86 84 88 86 88 77 73 71 70 68 68 69 69 69 70 70 70
73 72 73 73 73 74 77 77 76 77 76 74 74 74 75 76 75 74 77 80 80 76 70 80 86 87 82 79 82 87 87 87 89 72 70 69 68 68 68 68 69 69 69
73 73 72 72 72 73 74 75 75 76 76 74 74 73 73 74 74 72 72 74 74 80 79 74 81 84 82 83 82 83 86 89 89 80 70 68 68 67 66 66 66 66 66
72 73 72 71 71 71 72 74 74 74 76 77 77 75 74 73 73 75 76 76 77 78 79 77 80 84 85 85 83 82 83 84 87 79 71 68 67 66 66 65 64 63 61
71 72 72 71 71 70 71 71 73 74 75 77 78 78 77 77 74 73 74 74 74 76 73 70 75 81 82 83 82 82 82 84 85 89 82 77 73 69 67 66 65 64 60
72 72 72 71 70 69 68 68 72 73 72 74 77 79 79 78 73 74 76 75 73 72 70 68 68 73 78 77 78 83 81 85 85 85 87 88 88 86 84 68 75 67 63
71 71 69 66 64 66 65 64 66 70 70 73 73 77 78 72 71 66 66 68 73 71 70 67 68 70 74 76 80 81 82 80 79 88 84 85 89 87 89 89 76 69 63
69 68 65 60 64 64 62 61 63 68 67 70 73 75 77 79 71 74 66 66 67 67 69 74 71 71 73 76 78 74 77 79 80 85 81 82 87 84 89 89 68 65 63
67 64 60 60 63 64 61 60 62 69 70 68 74 76 76 74 74 73 74 73 75 77 73 70 71 73 77 76 78 77 78 78 81 83 81 79 87 84 89 89 67 64 62
67 64 60 59 59 61 58 57 59 66 66 67 68 71 73 73 66 62 71 71 73 75 70 63 65 65 64 63 69 75 72 73 77 81 82 82 85 83 86 87 87 63 60
67 63 59 59 59 59 56 54 58 64 65 66 67 68 62 69 59 58 68 73 71 74 73 69 71 66 66 71 62 74 75 73 80 80 83 79 83 82 80 86 85 84 77

GFSMA_sfc_temp_138.txt.gz
Temp
89 90 90 92 93 86 89 90 89 88 85 89 91 91 92 94 95 91 93 84 81 81 81 82 82 82 82 81 81 81 81 81 80 80 80 80 80 80 80 80 79 79 79
90 91 90 90 91 93 93 86 87 88 86 88 91 91 91 93 93 92 94 96 81 81 81 82 82 83 82 82 81 81 81 81 81 80 80 80 79 79 79 80 80 80 80
88 87 91 90 89 91 89 84 87 85 86 88 89 91 93 92 93 93 94 96 94 80 81 81 81 82 82 82 82 81 80 80 80 80 80 79 79 79 79 79 79 79 79
88 88 91 92 93 88 90 86 83 89 90 88 87 90 92 93 93 92 94 93 97 99 84 81 81 81 81 82 82 81 81 80 79 79 79 79 79 78 78 78 78 79 78
90 89 91 92 90 91 90 91 90 89 85 89 88 86 90 92 92 95 94 92 93 95 97 85 81 80 81 83 83 82 81 80 79 79 79 79 79 78 78 78 78 78 78
89 89 90 89 90 90 91 91 85 88 87 84 90 88 90 92 93 92 93 95 95 95 95 94 93 91 81 82 82 82 82 81 80 79 79 79 79 78 78 78 77 77 77
89 88 90 90 88 88 87 87 86 83 87 90 81 86 88 90 90 92 94 95 94 95 94 95 94 96 95 81 80 80 81 82 81 81 80 79 79 78 78 78 77 77 77
87 85 86 85 87 87 83 83 82 80 81 90 82 78 82 88 93 94 93 93 93 95 95 94 93 92 93 96 92 80 80 81 82 81 81 79 78 78 78 77 77 77 77
87 87 84 82 80 80 81 84 84 82 84 88 83 81 78 81 89 93 91 92 92 94 95 95 94 93 92 92 91 89 81 79 80 81 81 80 78 77 77 77 77 77 77
88 88 86 84 83 84 79 81 82 81 80 83 81 86 82 84 82 83 91 91 89 88 89 93 95 94 92 91 90 87 81 78 79 80 80 80 79 78 77 77 77 77 77
87 88 87 86 85 85 83 83 82 81 80 79 84 82 80 81 81 79 80 86 90 93 93 92 93 95 93 92 94 90 81 79 77 78 78 79 79 79 79 79 78 78 78
93 91 89 86 86 86 85 86 84 82 80 80 79 80 83 80 81 81 81 83 85 91 92 96 94 94 95 95 92 84 81 78 76 75 75 76 77 78 79 79 79 79 79
89 88 86 85 86 84 84 85 84 83 83 80 78 81 78 83 88 89 89 87 87 91 93 95 95 95 95 95 96 85 83 77 75 74 73 73 74 75 77 77 78 79 80
85 84 83 83 83 83 83 80 81 82 84 84 81 77 77 86 85 88 86 85 84 88 91 88 95 95 95 95 94 81 91 77 75 73 72 71 72 72 73 74 75 76 77
84 83 81 80 81 81 82 82 84 82 81 82 82 81 81 81 79 90 91 88 83 80 85 91 90 93 95 96 92 93 92 81 76 73 71 70 70 70 70 71 72 72 72
79 79 79 79 79 80 79 79 81 83 80 82 81 81 80 83 80 77 83 82 81 83 82 90 93 94 95 95 92 92 92 81 75 73 71 70 69 69 69 69 70 70 71
78 77 78 78 78 78 78 77 78 78 78 78 80 80 80 81 83 78 76 75 76 77 76 87 91 93 90 90 91 91 91 91 93 73 71 70 69 68 68 68 69 69 70
78 78 78 77 77 77 77 77 76 78 77 77 78 78 79 81 80 79 79 77 77 74 75 75 86 90 86 88 87 85 88 94 94 81 72 71 69 67 66 66 66 67 67
78 79 78 76 75 76 76 77 76 76 77 78 79 78 78 79 78 81 81 81 80 79 76 77 83 88 89 90 85 85 86 87 93 84 72 71 69 67 66 65 64 63 63
77 77 77 76 76 75 75 75 76 75 75 77 78 79 79 79 79 79 81 80 80 80 80 81 79 80 85 82 88 87 86 88 89 94 87 83 78 70 67 66 65 65 62
78 78 76 75 75 74 69 65 66 67 71 74 77 79 79 79 75 77 82 80 76 75 77 82 81 81 81 81 78 79 81 90 89 91 93 94 92 90 86 69 75 67 64
77 76 75 74 72 72 63 62 64 64 66 70 71 74 79 75 74 67 68 69 76 77 76 81 82 79 75 71 76 72 76 86 84 95 89 90 95 94 95 94 78 71 64
73 73 73 73 71 65 61 60 59 63 63 67 70 73 75 80 75 81 67 66 66 65 68 77 76 78 77 79 78 73 77 78 83 91 88 88 93 91 95 95 69 68 64
72 73 72 72 69 62 59 58 58 58 66 67 71 75 74 76 77 77 76 74 76 77 76 77 76 79 80 79 75 77 79 79 80 86 83 81 92 91 94 95 69 66 64
73 74 73 70 62 59 57 56 56 56 62 66 75 76 77 74 68 63 74 75 76 79 72 66 67 66 66 63 66 73 72 71 71 79 87 86 89 90 93 93 91 66 63
73 76 73 67 60 58 57 54 53 55 61 64 70 72 64 71 61 59 75 75 72 78 80 81 78 71 66 70 62 68 70 70 72 75 83 81 86 89 85 92 93 80 82